This demonstration page uses our WeatherBlox Daily Observations layout. Learn more.

39.92423, -83.80882

Hourly Observations for January 25, 2020

Temp ( °F °C ) Dew Point ( °F °C ) Humidity (%) Winds ( mph kmh ) Pressure ( in mb ) Visibility ( mi km ) Precip ( " mm )
12:56 am 00:56 Cloudy with Light Rain 37 2.8 37 2.8 100 100 SW 6 9 29.87 1012 7 11.26538 0 0
1:35 am 01:35 Cloudy 37 3 37 3 100 100 SW 6 9 29.88 1012 7 11.26538 0 0
1:56 am 01:56 Cloudy with Mist and Fog 36 2.2 36 2.2 100 100 SW 6 9 29.87 1012 6 9.65604 0 0
2:24 am 02:24 Cloudy with Light Rain 36 2 36 2 100 100 SW 6 9 29.89 1012 6 9.65604 0 0
2:56 am 02:56 Cloudy with Light Rain 36 2.2 36 2.2 100 100 WSW 6 9 29.87 1012 6 9.65604 0 0
3:25 am 03:25 Cloudy with Light Rain 36 2 36 2 100 100 SW 6 9 29.89 1012 5 8.0467 0 0
3:35 am 03:35 Cloudy with Light Rain 36 2 36 2 100 100 SW 6 9 29.89 1012 5 8.0467 0 0
3:56 am 03:56 Cloudy with Light Rain 36 2.2 36 2.2 100 100 SW 7 11 29.88 1012 4 6.43736 0 0
4:09 am 04:09 Cloudy with Light Rain 36 2 36 2 100 100 SW 8 13 29.89 1012 5 8.0467 0 0
4:27 am 04:27 Cloudy with Light Rain 36 2 36 2 100 100 SW 9 15 29.89 1012 7 11.26538 0 0
4:56 am 04:56 Cloudy 36 2.2 36 2.2 100 100 WSW 12 19 29.88 1012 10 16.0934 0 0
5:56 am 05:56 Cloudy 35 1.7 35 1.7 100 100 WSW 7 11 29.89 1012 10 16.0934 0 0
6:06 am 06:06 Cloudy 36 2 36 2 100 100 WSW 7 11 29.9 1013 10 16.0934 0 0
6:51 am 06:51 Cloudy 36 2 36 2 100 100 WSW 8 13 29.92 1013 10 16.0934 0 0
6:56 am 06:56 Cloudy 35 1.7 35 1.7 100 100 WSW 9 15 29.91 1013 10 16.0934 0 0
7:56 am 07:56 Cloudy 36 2.2 36 2.2 100 100 SW 7 11 29.92 1013 10 16.0934 0 0
8:56 am 08:56 Cloudy 36 2.2 35 1.7 97 97 WSW 14 22 29.94 1014 10 16.0934 0 0
9:56 am 09:56 Cloudy 35 1.7 34 1.1 96 96 WSW 13 20 29.94 1014 10 16.0934 0 0
10:19 am 10:19 Cloudy 36 2 34 1 93 93 WSW 17 28 29.96 1015 10 16.0934 0 0
10:56 am 10:56 Cloudy 35 1.7 33 0.6 93 93 WSW 15 24 29.96 1014 10 16.0934 0 0
11:28 am 11:28 Cloudy with Light Rain 36 2 34 1 93 93 SW 15 24 29.97 1015 10 16.0934 0 0
11:56 am 11:56 Cloudy with Light Rain 35 1.7 34 1.1 96 96 WSW 16 26 29.96 1015 8 12.87472 0 0
12:56 pm 12:56 Cloudy with Light Rain 35 1.7 34 1.1 96 96 WSW 16 26 29.94 1014 6 9.65604 0 0
1:09 pm 13:09 Cloudy with Light Snow 34 1 34 1 100 100 WSW 13 20 29.96 1015 2 3.21868 0 0
1:49 pm 13:49 Cloudy with Light Snow 34 1 34 1 100 100 WSW 17 28 29.95 1014 5 8.0467 0 0
1:56 pm 13:56 Cloudy with Light Snow 34 1.1 34 1.1 100 100 WSW 14 22 29.93 1014 3 4.82802 0 0
2:03 pm 14:03 Cloudy with Light Snow 34 1 34 1 100 100 WSW 15 24 29.95 1014 2.5 4.02335 0 0
2:17 pm 14:17 Cloudy with Light Snow 34 1 34 1 100 100 SW 10 17 29.95 1014 3 4.82802 0 0
2:25 pm 14:25 Cloudy with Light Snow 34 1 34 1 100 100 SW 13 20 29.95 1014 2.5 4.02335 0 0
2:32 pm 14:32 Cloudy with Light Snow 34 1 34 1 100 100 SW 13 20 29.95 1014 4 6.43736 0 0
2:56 pm 14:56 Cloudy with Light Snow 34 1.1 33 0.6 97 97 SW 14 22 29.93 1013 3 4.82802 0 0
3:42 pm 15:42 Cloudy with Light Snow 34 1 34 1 100 100 WSW 13 20 29.94 1014 2.5 4.02335 0 0
3:56 pm 15:56 Cloudy with Light Snow 33 0.6 33 0.6 100 100 WSW 16 26 29.93 1014 3 4.82802 0 0
4:03 pm 16:03 Cloudy with Light Snow 34 1 34 1 100 100 WSW 14 22 29.95 1014 2.5 4.02335 0 0
4:30 pm 16:30 Cloudy with Light Snow 34 1 34 1 100 100 WSW 14 22 29.95 1014 4 6.43736 0 0
4:56 pm 16:56 Cloudy with Light Snow 33 0.6 33 0.6 100 100 WSW 12 19 29.93 1014 7 11.26538 0 0
5:56 pm 17:56 Cloudy with Light Snow 33 0.6 33 0.6 100 100 SW 13 20 29.94 1014 4 6.43736 0 0
6:56 pm 18:56 Cloudy with Light Snow 33 0.6 33 0.6 100 100 WSW 10 17 29.95 1014 3 4.82802 0 0
7:03 pm 19:03 Cloudy with Light Snow 34 1 34 1 100 100 WSW 10 17 29.97 1015 2.5 4.02335 0 0
7:15 pm 19:15 Cloudy with Light Snow 34 1 34 1 100 100 SW 14 22 29.97 1015 1.75 2.816345 0 0
7:27 pm 19:27 Cloudy with Light Snow 34 1 34 1 100 100 SW 15 24 29.97 1015 2.5 4.02335 0 0
7:40 pm 19:40 Cloudy with Light Snow 34 1 34 1 100 100 WSW 16 26 29.97 1015 3 4.82802 0 0
7:56 pm 19:56 Cloudy with Light Snow 32 0 32 0 100 100 WSW 12 19 29.96 1015 2.5 4.02335 0 0
8:56 pm 20:56 Cloudy with Light Snow 32 0 32 0 100 100 WSW 18 30 29.95 1014 2 3.21868 0 0
9:15 pm 21:15 Cloudy with Light Snow 32 0 32 0 100 100 WSW 16 26 29.97 1015 2 3.21868 0 0
9:40 pm 21:40 Cloudy with Light Snow 32 0 32 0 100 100 WSW 18 30 29.97 1015 3 4.82802 0 0
9:53 pm 21:53 Cloudy with Light Snow 32 0 32 0 100 100 WSW 15 24 29.97 1015 4 6.43736 0 0
9:56 pm 21:56 Cloudy with Light Snow 32 0 32 0 100 100 WSW 16 26 29.95 1014 3 4.82802 0 0
10:13 pm 22:13 Cloudy with Light Freezing Rain 32 0 32 0 100 100 WSW 18 30 29.98 1015 2.5 4.02335 0 0
10:38 pm 22:38 Cloudy with Light Freezing Rain 32 0 32 0 100 100 WSW 18 30 29.98 1015 3 4.82802 0 0
10:56 pm 22:56 Cloudy with Light Freezing Rain 32 0 31 -0.6 96 96 WSW 18 30 29.96 1015 4 6.43736 0 0
11:38 pm 23:38 Cloudy with Light Wintry Mix 32 0 30 -1 93 93 WSW 15 24 29.98 1015 10 16.0934 0 0
11:46 pm 23:46 Cloudy 32 0 30 -1 93 93 W 16 26 29.98 1015 10 16.0934 0 0
11:56 pm 23:56 Cloudy 32 0 31 -0.6 96 96 WSW 15 24 29.97 1015 10 16.0934 0 0

Powered by AerisWeather